Regional Weather Roundup
Issued by NWS Lake Charles, LA

Home | Current Version | Previous Version | Text Only | Print | Product List | Glossary On
Versions: 1 2 3 4 5 6 7 8 9 10 11 12 13 14 15 16 17 18 19 20 21 22 23 24 25 26 27 28 29 30 31 32 33 34 35 36 37 38 39 40 41 42 43 44 45 46 47 48 49 50
000
ASUS44 KLCH 231810
RWRLCH
RWRLCH
REGIONAL WEATHER ROUNDUP
NATIONAL WEATHER SERVICE LAKE CHARLES LA
100 PM CDT SAT AUG 23 2014

Note: "fair" indicates few or no clouds below 12,000 feet with no
significant weather and/or obstructions to visibility.


ACROSS SOUTHEAST TEXAS

CITY           SKY/WX    TMP DP  RH WIND       PRES   REMARKS
BEAUMONT       PTSUNNY   91  72  53 VRB3      30.02F
BEAUMONT CITY    N/A     90  71  53 CALM      30.02F
ORANGE         MOCLDY    92  70  47 SE6       30.03F
JASPER         SUNNY     89  71  55 SW3       30.06F
$$

ACROSS CENTRAL LOUISIANA

CITY           SKY/WX    TMP DP  RH WIND       PRES   REMARKS
LEESVILLE      MOSUNNY   90  71  53 CALM      30.04F
FULLERTON      NOT AVBL
ALEXANDRIA INT MOSUNNY   92  72  51 CALM      30.01F
ESLER FIELD    MOSUNNY   93  73  52 S3        30.04F HX 102
DERIDDER       MOCLDY    91  71  52 CALM      30.06F
OAKDALE        MOCLDY    91  76  59 S3        30.03F HX 103
OPELOUSAS        N/A    N/A N/A N/A NW6       30.03F
$$

ACROSS SOUTHWEST AND SOUTH CENTRAL LOUISIANA

CITY           SKY/WX    TMP DP  RH WIND       PRES   REMARKS
SULPHUR        PTCLDY    93  71  48 CALM      30.03F
LAKE CHARLES   MOSUNNY   91  73  55 SW3       30.02F
CHENNAULT INT  MOSUNNY   90  72  55 CALM      30.04F
CAMERON PHI    CLEAR     88  75  66 S8        30.04S
DEQUINCY         N/A     91  72  55 CALM      30.03F
JENNINGS         N/A     90  74  59 CALM      30.03F
LAFAYETTE      PTSUNNY   92  75  57 CALM      30.03F HX 103
NEW IBERIA     SUNNY     94  75  54 VRB3      30.03F HX 105
ABBEVILLE        N/A     90  76  62 CALM      30.03F HX 101
PATTERSON      SUNNY     93  79  62 NW7       30.06  HX 110
SALT POINT       N/A     92  79  65 VRB5      30.02F HX 108
$$

SELECTED SITES ACROSS THE REGION

CITY           SKY/WX    TMP DP  RH WIND       PRES   REMARKS
HOUSTON BUSH   MOSUNNY   93  71  48 SE8       30.01F HX 100
HOUSTON HOBBY  PTSUNNY   93  71  48 CALM      30.00F HX 100
GALVESTON      MOSUNNY   90  77  65 SE9       30.03F HX 103
COLLEGE STAT   MOSUNNY   90  71  53 MISG      30.01F
CONROE         MOSUNNY   93  70  46 S8        30.03F
HUNTSVILLE     SUNNY     91  69  48 S6        30.03F
LUFKIN         MOSUNNY   92  72  51 W6        30.03F
SHREVEPORT     MOSUNNY   93  67  42 W9        30.02F
MONROE         MOSUNNY   93  73  52 W8        30.03F HX 102
NATCHEZ MS     SUNNY     90  73  58 N7        30.05F
BATON ROUGE    PTSUNNY   93  74  53 CALM      30.03F HX 103
N.O. INTL ARPT MOSUNNY   93  76  57 N8        30.02F HX 105
SLIDELL        SUNNY     95  73  48 VRB7      30.00F HX 104
$$

MARINE REPORTS

STATION/POSITION TIME  TEMP    WIND        PRES    VSBY  WAVE
                       AIR SEA DIR/SP/G                  HT/PER
                 (UTC) (F)     (DEG/KT/KT) (MB)    (MI)  (FT/S)
BUOY 30 S HIGH I NOT AVBL
SEA RIM ST PARK  1800   87     170/  7/  8 1017.2F
PORT ARTHUR      1800      88  100/  4/  7 1016.8F
SABINE PASS N    1800   88 89  180/  7/ 11 1016.9F
TEXAS POINT      1800   86 88  160/  6/  8 1017.1F
CALCASIEU PASS   1800   86 88  220/  6/  8 1018.1F
LK CHARLES BEACH 1800   89 88              1017.5F
MARSH ISLAND     NOT AVBL
FRESH WATER LOCK 1800   87 90  180/  8/  9 1016.9S
AMERADA PASS     1800   87 87  290/  4/  7 1016.8F
$$


USA.gov is the U.S. government's official web portal to all federal, state and local government web resources and services.